Location: Albuquerque Trailhead
(34.7934°N, 106.3736°W)
Time: 00:32:00
(UTC+00:00)

Cosmos 1844 - Pass Details

Date: 20 June 2021
Orbit: 823 x 867 km, 70.9° (Epoch: 01 August)

Event Time Altitude Azimuth Distance (km) Brightness Sun altitude
Rises 05:10:50 0° 331° (NNW) 3,369 8.2 -25.6°
Reaches altitude 10° 05:13:21 10° 326° (NW) 2,437 7.1 -25.8°
Maximum altitude 05:18:39 46° 254° (WSW) 1,105 4.3 -26.3°
Enters shadow 05:19:26 43° 230° (SW) 1,152 4.2 -26.4°
